Regional Weather Roundup
Issued by NWS

Home | Current Version | Previous Version | Graphics & Text | Print | Product List | Glossary On
Versions: 1 2 3 4 5 6 7 8 9 10 11 12 13 14 15 16 17 18 19 20 21 22 23 24 25 26 27 28 29 30 31 32 33 34 35 36 37 38 39 40 41 42 43 44 45 46 47 48 49 50
216
ASUS43 KOAX 250310
RWRNE

WEATHER ROUNDUP FOR NEBRASKA
NATIONAL WEATHER SERVICE OMAHA NE
1000 PM CDT TUE APR 24 2018

NOTES: SATELLITE DATA IS BEING USED TO AUGMENT CLOUD COVER ABOVE
       12000 FEET.
       "FAIR" INDICATES FEW OR NO CLOUDS BELOW 12,000 FEET WITH NO
       SIGNIFICANT WEATHER AND/OR OBSTRUCTIONS TO VISIBILITY.


NEZ001>004-019>022-054>056-250400-
NEBRASKA PANHANDLE

CITY           SKY/WX    TMP DP  RH WIND       PRES   REMARKS
SCOTTSBLUFF    CLEAR     36  30  79 CALM      30.43R
ALLIANCE       CLOUDY    31  29  92 CALM      30.41R
CHADRON        CLOUDY    37  29  72 E7        30.42R WCI  32
GORDON         CLOUDY    37  31  78 W6        30.40S WCI  33
KIMBALL        CLOUDY    37  31  79 N7        30.42R WCI  31
SIDNEY         MOCLDY    34  29  82 N10       30.42R WCI  26
$$

NEZ057>060-069>072-079>082-250400-
SOUTHWEST NEBRASKA

CITY           SKY/WX    TMP DP  RH WIND       PRES   REMARKS
NORTH PLATTE   CLOUDY    38  33  82 N14G23    30.39R WCI  30
IMPERIAL       CLOUDY    38  32  79 NW16      30.40R WCI  29
LEXINGTON      CLOUDY    40  36  84 N18       30.34R WCI  31
MCCOOK         CLOUDY    40  35  83 N14       30.37R WCI  32
OGALLALA       DRIZZLE   38  33  80 N12G18    30.41R WCI  31
$$

NEZ005>010-023>029-035>040-094-250400-
NORTH CENTRAL NEBRASKA

CITY           SKY/WX    TMP DP  RH WIND       PRES   REMARKS
VALENTINE      CLOUDY    38  34  85 NW7       30.38S WCI  33
AINSWORTH      CLOUDY    37  36  96 CALM      30.38R
BROKEN BOW     CLOUDY    38  35  89 N17G30    30.34R WCI  28
O`NEILL        CLOUDY    42  40  93 N10       30.34R
ORD            CLOUDY    40  39  97 N21G29    30.32R WCI  30
THEDFORD       CLOUDY    36  34  94 N12       30.39R WCI  28
$$

NEZ041-046>049-061>064-073>077-083>087-250400-
SOUTH CENTRAL NEBRASKA

CITY           SKY/WX    TMP DP  RH WIND       PRES   REMARKS
GRAND ISLAND   LGT RAIN  44  42  93 N22G29    30.29R FOG
AURORA         CLOUDY    45  43  95 N18G26    30.27R
HASTINGS       LGT RAIN  44  43  96 N18       30.28R FOG
HEBRON         CLOUDY    49  47  93 NW5       30.23S
HOLDREGE       CLOUDY    40  38  91 N17G25    30.31R WCI  31
KEARNEY        CLOUDY    40  38  93 N17       30.31R WCI  31
YORK           LGT RAIN  46  46 100 N10       30.24R
$$

NEZ011>018-030>034-042>045-250400-
NORTHEAST NEBRASKA

CITY           SKY/WX    TMP DP  RH WIND       PRES   REMARKS
NORFOLK        LGT RAIN  44  43  96 N17       30.28R
ALBION         RAIN      43  42  94 N17       30.29R
BLAIR          LGT RAIN  51  47  88 N12       30.20R
COLUMBUS       LGT RAIN  46  44  93 N14       30.26R
FREMONT        CLOUDY    50  48  92 N7        30.23R
TEKAMAH        CLOUDY    48  46  93 N14       30.23R
WAYNE          DRIZZLE   44  43  97 N16       30.27R
$$

NEZ050>053-065>068-078-088>093-250400-
SOUTHEAST NEBRASKA

CITY           SKY/WX    TMP DP  RH WIND       PRES   REMARKS
LINCOLN        CLOUDY    50  48  93 N7        30.22R
OMAHA EPPLEY   LGT RAIN  52  47  83 N14       30.19S
BEATRICE       CLOUDY    51  50  97 N8        30.21R
FALLS CITY     CLOUDY    55  48  77 N10       30.16F
NEBRASKA CITY  CLOUDY    52  52  99 N8        30.18F
PLATTSMOUTH    DRIZZLE   52  51  95 N6        30.18F
$$

NEZ044-045-051>053-067-250400-
OMAHA AREA

CITY           SKY/WX    TMP DP  RH WIND       PRES   REMARKS
OMAHA EPPLEY   LGT RAIN  52  47  83 N14       30.19S
BLAIR          LGT RAIN  51  47  88 N12       30.20R
FREMONT        CLOUDY    50  48  92 N7        30.23R
MILLARD        DRIZZLE   55  51  88 N6        30.20R
PLATTSMOUTH    DRIZZLE   52  51  95 N6        30.18F
WAHOO          CLOUDY    52  48  88 N12       30.22R
$$




USA.gov is the U.S. government's official web portal to all federal, state and local government web resources and services.